sat.trackr.live / text

‹ back to catalog

STARLINK-35356

NORAD 65836 · 2025-221P

PAYLOAD ACTIVE UNKNOWN

§ Identity

Operator
Country
US
Launch date
2025-09-29
Launch site
AFWTR
Launch vehicle
Mass (kg)
RCS (m²)

Purposes: comms

External: N2YO · Heavens-Above · Gunter

§ Orbital elements

Epoch: 2026-09-20T11:09:32.138784Z

Period
93.85 min
Inclination
53.1588°
Eccentricity
0.0001734
Mean motion
15.34407440 rev/d
Perigee alt
461.5 km
Apogee alt
463.9 km
Semi-major
6,840.8 km
B*
5.2969e-4
RAAN
261.5593°
Arg perigee
87.2911°
Mean anomaly
272.8290°
Rev number
5,458

§ Raw data

STARLINK-353561 65836U 25221P   26263.46495531  .00017566  00000+0  52969-3 0  99942 65836  53.1588 261.5593 0001734  87.2911 272.8290 15.34407440 54588

JSON: /api/v1/satellites/65836 · /tle

For live sub-satellite position, see the globe view (requires WebGL).

§ Visibility from observer

Set your observer location to see the next 7 days of passes ≥ 10°. The values pass through the URL so the page stays shareable.

No JS? Fill the form by hand. The geolocation button needs JavaScript.